Thompson, Manitoba

10:51 AM CST on January 24, 2017 (GMT -0600)
Thompson

Weather History for CYTH - February, 2013

Change the Weather History Date:

Sunday, February 24, 2013

  Actual Average Record
Temperature  
Mean Temperature 12 °F -  
Max Temperature 27 °F 17 °F 27 °F (2013)
Min Temperature -2 °F -4 °F -43 °F (2003)
Degree Days  
Heating Degree Days 52    
Moisture  
Dew Point 10 °F    
Average Humidity 79    
Maximum Humidity 97    
Minimum Humidity 35    
Precipitation  
Precipitation 0.00 in 0.03 in - ()
Sea Level Pressure  
Sea Level Pressure 29.88 in    
Wind  
Wind Speed 4 mph ()    
Max Wind Speed 7 mph    
Max Gust Speed -    
Visibility 15.0 miles    
Events      
Averages and records for this station are not official NWS values.
T = Trace of Precipitation, MM = Missing Value Source: Averaged Metar Reports

Daily Weather History Graph

Daily Weather History Graph

Search for Another Location

Airport or City:

Trip Planner

Search our weather history database for the weather conditions in past years. The results will help you decide how hot, cold, wet, or windy it might be!

Date:

Astronomy

Feb. 24, 2013 Rise Set
Actual Time 7:34 AM CST 5:56 PM CST
Civil Twilight 6:56 AM CST 6:33 PM CST
Nautical Twilight 6:13 AM CST 7:16 PM CST
Astronomical Twilight 5:30 AM CST 7:59 PM CST
Moon 5:08 PM CST 6:36 AM CST
Length of Visible Light 11h 37m
Length of Day
10h 22m
Waxing Gibbous, 99% of the Moon is Illuminated
Feb 24
Waxing Gibbous
Feb 25
Full
Mar 4
Last Quarter
Mar 11
New
Mar 19
First Quarter

Hourly Weather History & Observations

Time (CST) Temp. Windchill Dew Point Humidity Pressure Visibility Wind Dir Wind Speed Gust Speed Precip Events Conditions
12:00 AM 2 °F - 2 °F 97% 29.91 in 15 mi ESE 5.8 mph - -   Partly Cloudy
12:00 AM 3.2 °F -6.2 °F 1.4 °F 92% 29.91 in 15.0 mi ESE 4.6 mph - N/A   Scattered Clouds
1:00 AM 5.0 °F -2.1 °F 3.2 °F 92% 29.92 in 15.0 mi SE 3.5 mph - N/A   Scattered Clouds
2:00 AM 5.0 °F - 3.2 °F 92% 29.92 in 15.0 mi ESE 2.3 mph - N/A   Partly Cloudy
3:00 AM 2 °F - 2 °F 97% 29.91 in 15 mi ESE 5.8 mph - -   Clear
3:00 AM 3.2 °F -4.2 °F 1.4 °F 92% 29.90 in 15.0 mi ESE 3.5 mph - N/A   Mostly Cloudy
4:00 AM 1.4 °F - -4.0 °F 78% 29.91 in 15.0 mi East 2.3 mph - N/A   Scattered Clouds
5:00 AM -2.2 °F -10.4 °F -7.6 °F 78% 29.90 in 15.0 mi ESE 3.5 mph - N/A   Scattered Clouds
6:00 AM 5 °F - -9 °F 35% 29.89 in 15 mi East 4.6 mph - -   Mostly Cloudy
7:00 AM 8.6 °F 2.0 °F 6.8 °F 92% 29.89 in 15.0 mi East 3.5 mph - N/A   Mostly Cloudy
8:00 AM 10.4 °F 4.0 °F 8.6 °F 92% 29.89 in 15.0 mi SE 3.5 mph - N/A   Mostly Cloudy
9:00 AM 10.4 °F - 8.6 °F 92% 29.89 in 15.0 mi SSE 2.3 mph - N/A   Overcast
10:00 AM 14.0 °F 3.9 °F 12.2 °F 93% 29.89 in 15.0 mi South 6.9 mph - N/A   Overcast
11:00 AM 15.8 °F 7.2 °F 12.2 °F 86% 29.89 in 15.0 mi South 5.8 mph - N/A   Mostly Cloudy
12:00 PM 20 °F - 13 °F 62% 29.87 in 15 mi South 5.8 mph - -   Scattered Clouds
12:00 PM 19.4 °F 11.5 °F 12.2 °F 74% 29.87 in 15.0 mi South 5.8 mph - N/A   Scattered Clouds
1:00 PM 23.0 °F 15.8 °F 14.0 °F 68% 29.86 in 15.0 mi South 5.8 mph - N/A   Mostly Cloudy
2:00 PM 26.6 °F 20.0 °F 15.8 °F 64% 29.85 in 15.0 mi SSW 5.8 mph - N/A   Mostly Cloudy
3:00 PM 26.6 °F 20.0 °F 15.8 °F 64% 29.86 in 15.0 mi SSW 5.8 mph - N/A   Mostly Cloudy
4:00 PM 28.4 °F 22.2 °F 17.6 °F 64% 29.86 in 15.0 mi SSW 5.8 mph - N/A   Overcast
5:00 PM 26.6 °F 22.6 °F 19.4 °F 74% 29.87 in 15.0 mi SW 3.5 mph - N/A   Overcast
6:00 PM 27 °F - 19 °F 63% 29.87 in 15 mi SW 5.8 mph - -   Overcast
6:00 PM 26.6 °F 20.0 °F 19.4 °F 74% 29.87 in 15.0 mi SW 5.8 mph - N/A   Overcast
7:00 PM 26.6 °F 19.1 °F 21.2 °F 80% 29.87 in 15.0 mi WSW 6.9 mph - N/A   Overcast
8:00 PM 26.6 °F 19.1 °F 21.2 °F 80% 29.88 in 15.0 mi West 6.9 mph - N/A   Overcast
9:00 PM 26.6 °F 19.1 °F 21.2 °F 80% 29.87 in 15.0 mi West 6.9 mph - N/A   Overcast
10:00 PM 26.6 °F 20.0 °F 21.2 °F 80% 29.87 in 15.0 mi SW 5.8 mph - N/A   Overcast
11:00 PM 26.6 °F 21.2 °F 21.2 °F 80% 29.86 in 15.0 mi SSW 4.6 mph - N/A   Overcast